Location: Chuathbaluk
(61.5726°N, 159.2454°W)
Time: 23:22:58
(UTC+00:00)

Transit 2A - Pass Details

Date: 30 November 2020
Orbit: 598 x 960 km, 66.7° (Epoch: 20 January)

Event Time Altitude Azimuth Distance (km) Brightness Sun altitude
Rises 04:53:25 0° 218° (SW) 3,609 10.1 -22.3°
Reaches altitude 10° 04:56:03 10° 216° (SW) 2,640 9.3 -22.6°
Maximum altitude 05:02:09 66° 136° (SE) 970 6.3 -23.3°
Enters shadow 05:03:17 54° 85° (E) 1,061 6.3 -23.4°
Drops below altitude 10° 05:07:48 10° 56° (NE) 2,448 - -24.0°
Sets 05:10:09 0° 53° (NE) 3,329 - -24.2°
